Weather History for Tomahawk, WI

Change the Weather History Date:

Sunday, February 17, 2013

  Actual Average (KRHI) Record (KRHI)
Temperature  
Mean Temperature -1 °F 17 °F  
Max Temperature 21 °F 27 °F 54 °F (1981)
Min Temperature -23 °F 7 °F -33 °F (1979)
Degree Days  
Heating Degree Days 66 48  
Month to date heating degree days 854  
Since 1 July heating degree days 6115  
Cooling Degree Days 0 0  
Month to date cooling degree days 0  
Year to date cooling degree days 0  
Moisture  
Dew Point -8 °F    
Average Humidity 62    
Maximum Humidity 85    
Minimum Humidity 39    
Precipitation  
Precipitation 0.00 in 0.03 in 0.43 in (1911)
Month to date precipitation 0.53  
Year to date precipitation 1.64  
Snow  
Snow 0.00 in - 2.80 in (2008)
Month to date snowfall  
Since 1 July snowfall  
Snow Depth -    
Sea Level Pressure  
Sea Level Pressure 29.99 in    
Wind  
Wind Speed 2 mph (SSE)    
Max Wind Speed 9 mph    
Max Gust Speed -    
Visibility 10 miles    
Events      
T = Trace of Precipitation, MM = Missing Value Source: NWS Daily Summary

Daily Weather History Graph

Daily Weather History Graph

Search for Another Location

Airport:

Trip Planner

Search our weather history database for the weather conditions in past years. The results will help you decide how hot, cold, wet, or windy it might be!

Date:

Astronomy

Feb. 17, 2013 Rise Set
Actual Time 6:57 AM CST 5:29 PM CST
Civil Twilight 6:27 AM CST 6:00 PM CST
Nautical Twilight 5:52 AM CST 6:34 PM CST
Astronomical Twilight 5:18 AM CST 7:08 PM CST
Moon 10:27 AM CST (2/17) 12:47 AM CST (2/17)
Length of Visible Light 11h 32m
Length of Day
10h 32m
Waxing Crescent, 49% of the Moon is Illuminated
Feb 17
Waxing Crescent
Feb 17
First Quarter
Feb 25
Full
Mar 4
Last Quarter
Mar 11
New

Hourly Weather History & Observations

Time (CST) Temp. Windchill Dew Point Humidity Pressure Visibility Wind Dir Wind Speed Gust Speed Precip Events Conditions
12:15 AM -14.8 °F - -20.2 °F 77% 30.08 in 10.0 mi Calm Calm - N/A   Clear
12:35 AM -16.6 °F - -22.0 °F 76% 30.09 in 10.0 mi Calm Calm - N/A   Clear
12:55 AM -16.6 °F - -23.8 °F 70% 30.09 in 10.0 mi Calm Calm - N/A   Clear
1:15 AM -16.6 °F - -22.0 °F 76% 30.08 in 10.0 mi Calm Calm - N/A   Clear
1:35 AM -18.4 °F - -23.8 °F 76% 30.08 in 10.0 mi Calm Calm - N/A   Clear
1:55 AM -18.4 °F - -23.8 °F 76% 30.09 in 10.0 mi Calm Calm - N/A   Clear
2:15 AM -18.4 °F - -25.6 °F 70% 30.09 in 10.0 mi Calm Calm - N/A   Clear
2:35 AM -20.2 °F - -27.4 °F 69% 30.09 in 10.0 mi Calm Calm - N/A   Clear
2:55 AM -18.4 °F - -25.6 °F 70% 30.09 in 10.0 mi Calm Calm - N/A   Clear
3:15 AM -20.2 °F - -25.6 °F 76% 30.08 in 10.0 mi Calm Calm - N/A   Clear
3:35 AM -20.2 °F - -25.6 °F 76% 30.08 in 10.0 mi Calm Calm - N/A   Clear
3:55 AM -22.0 °F - -27.4 °F 76% 30.08 in 10.0 mi Calm Calm - N/A   Clear
4:15 AM -22.0 °F - -27.4 °F 76% 30.08 in 10.0 mi Calm Calm - N/A   Clear
4:35 AM -22.0 °F - -27.4 °F 76% 30.08 in 10.0 mi Calm Calm - N/A   Clear
4:55 AM -20.2 °F - -25.6 °F 76% 30.07 in 10.0 mi Calm Calm - N/A   Clear
5:15 AM -22.0 °F - -27.4 °F 76% 30.07 in 10.0 mi Calm Calm - N/A   Clear
5:35 AM -22.0 °F - -27.4 °F 76% 30.07 in 10.0 mi Calm Calm - N/A   Clear
5:55 AM -22.0 °F - -27.4 °F 76% 30.08 in 10.0 mi Calm Calm - N/A   Clear
6:15 AM -22.0 °F - -27.4 °F 76% 30.07 in 10.0 mi Calm Calm - N/A   Clear
6:35 AM -22.0 °F - -27.4 °F 76% 30.07 in 10.0 mi Calm Calm - N/A   Clear
6:55 AM -22.0 °F - -27.4 °F 76% 30.07 in 10.0 mi Calm Calm - N/A   Clear
7:15 AM -23.8 °F - -29.2 °F 76% 30.07 in 10.0 mi Calm Calm - N/A   Clear
7:35 AM -22.0 °F - -27.4 °F 76% 30.06 in 10.0 mi Calm Calm - N/A   Clear
7:55 AM -16.6 °F - -22.0 °F 76% 30.06 in 10.0 mi Calm Calm - N/A   Clear
8:15 AM -13.0 °F - -18.4 °F 77% 30.06 in 10.0 mi Calm Calm - N/A   Clear
8:35 AM -11.2 °F - -16.6 °F 77% 30.07 in 10.0 mi Calm Calm - N/A   Clear
8:55 AM -7.6 °F - -11.2 °F 84% 30.07 in 10.0 mi Calm Calm - N/A   Clear
9:15 AM -0.4 °F - -4.0 °F 85% 30.07 in 10.0 mi Calm Calm - N/A   Clear
9:35 AM 5.0 °F - -0.4 °F 78% 30.06 in 10.0 mi Calm Calm - N/A   Clear
9:55 AM 8.6 °F 0.1 °F -0.4 °F 67% 30.06 in 10.0 mi SSE 4.6 mph - N/A   Clear
10:15 AM 12.2 °F 2.9 °F -0.4 °F 57% 30.05 in 10.0 mi SSE 5.8 mph - N/A   Clear
10:35 AM 12.2 °F 1.7 °F -0.4 °F 57% 30.06 in 10.0 mi South 6.9 mph - N/A   Clear
10:55 AM 14.0 °F 3.9 °F -0.4 °F 53% 30.06 in 10.0 mi SSE 6.9 mph - N/A   Clear
11:15 AM 14.0 °F 3.9 °F -0.4 °F 53% 30.05 in 10.0 mi SSE 6.9 mph - N/A   Clear
11:35 AM 15.8 °F 6.1 °F -2.2 °F 45% 30.04 in 10.0 mi South 6.9 mph - N/A   Clear
11:55 AM 17.6 °F 10.7 °F -0.4 °F 45% 30.03 in 10.0 mi SSE 4.6 mph - N/A   Clear
12:15 PM 17.6 °F 9.3 °F -0.4 °F 45% 30.02 in 10.0 mi South 5.8 mph - N/A   Clear
12:55 PM 19.4 °F 11.5 °F -0.4 °F 42% 30.00 in 10.0 mi South 5.8 mph - N/A   Clear
1:15 PM 19.4 °F 11.5 °F -0.4 °F 42% 29.99 in 10.0 mi South 5.8 mph - N/A   Clear
1:35 PM 19.4 °F 14.3 °F -0.4 °F 42% 29.98 in 10.0 mi South 3.5 mph - N/A   Clear
1:55 PM 19.4 °F 10.4 °F -0.4 °F 42% 29.97 in 10.0 mi SSE 6.9 mph - N/A   Clear
2:15 PM 21.2 °F 14.9 °F 1.4 °F 42% 29.96 in 10.0 mi South 4.6 mph - N/A   Clear
2:35 PM 21.2 °F 14.9 °F -0.4 °F 39% 29.95 in 10.0 mi SSE 4.6 mph - N/A   Clear
2:55 PM 21.2 °F 12.6 °F 1.4 °F 42% 29.95 in 10.0 mi South 6.9 mph - N/A   Clear
3:15 PM 21.2 °F 13.6 °F 1.4 °F 42% 29.94 in 10.0 mi SSE 5.8 mph - N/A   Clear
3:35 PM 21.2 °F 12.6 °F 1.4 °F 42% 29.93 in 10.0 mi SSE 6.9 mph - N/A   Clear
3:55 PM 21.2 °F 13.6 °F 1.4 °F 42% 29.93 in 10.0 mi SSE 5.8 mph - N/A   Clear
4:15 PM 21.2 °F 14.9 °F 1.4 °F 42% 29.92 in 10.0 mi SSE 4.6 mph - N/A   Clear
4:35 PM 19.4 °F 10.4 °F 1.4 °F 46% 29.92 in 10.0 mi SSE 6.9 mph - N/A   Clear
4:55 PM 19.4 °F 12.8 °F 1.4 °F 46% 29.91 in 10.0 mi SE 4.6 mph - N/A   Clear
5:15 PM 19.4 °F 14.3 °F 3.2 °F 49% 29.90 in 10.0 mi SSE 3.5 mph - N/A   Clear
5:35 PM 17.6 °F 9.3 °F 3.2 °F 53% 29.90 in 10.0 mi SSE 5.8 mph - N/A   Scattered Clouds
6:15 PM 17.6 °F 10.7 °F 1.4 °F 49% 29.90 in 10.0 mi SSE 4.6 mph - N/A   Scattered Clouds
6:35 PM 17.6 °F 10.7 °F 3.2 °F 53% 29.90 in 10.0 mi SSE 4.6 mph - N/A   Scattered Clouds
6:55 PM 17.6 °F 12.3 °F 3.2 °F 53% 29.88 in 10.0 mi SSE 3.5 mph - N/A   Scattered Clouds
7:15 PM 17.6 °F 9.3 °F 3.2 °F 53% 29.88 in 10.0 mi SE 5.8 mph - N/A   Clear
7:35 PM 17.6 °F 9.3 °F 3.2 °F 53% 29.88 in 10.0 mi SE 5.8 mph - N/A   Scattered Clouds
7:55 PM 15.8 °F 6.1 °F 3.2 °F 58% 29.87 in 10.0 mi SE 6.9 mph - N/A   Mostly Cloudy
8:15 PM 15.8 °F 4.2 °F 3.2 °F 58% 29.87 in 10.0 mi SSE 9.2 mph - N/A   Overcast
8:35 PM 15.8 °F 7.2 °F 3.2 °F 58% 29.86 in 10.0 mi SSE 5.8 mph - N/A   Overcast
8:55 PM 14.0 °F 3.9 °F 3.2 °F 62% 29.86 in 10.0 mi SE 6.9 mph - N/A   Overcast
9:15 PM 15.8 °F 7.2 °F 5.0 °F 62% 29.86 in 10.0 mi SE 5.8 mph - N/A   Overcast
9:35 PM 14.0 °F 3.9 °F 5.0 °F 67% 29.85 in 10.0 mi SE 6.9 mph - N/A   Overcast
9:55 PM 14.0 °F 5.1 °F 5.0 °F 67% 29.85 in 10.0 mi SE 5.8 mph - N/A   Scattered Clouds
10:15 PM 15.8 °F 6.1 °F 5.0 °F 62% 29.84 in 10.0 mi SSE 6.9 mph - N/A   Mostly Cloudy
10:35 PM 15.8 °F 7.2 °F 6.8 °F 68% 29.83 in 10.0 mi SSE 5.8 mph - N/A   Overcast
10:55 PM 17.6 °F 9.3 °F 8.6 °F 68% 29.83 in 10.0 mi SSE 5.8 mph - N/A   Overcast
11:15 PM 17.6 °F 10.7 °F 8.6 °F 68% 29.83 in 10.0 mi SE 4.6 mph - N/A   Overcast
11:35 PM 17.6 °F 8.2 °F 8.6 °F 68% 29.82 in 10.0 mi SE 6.9 mph - N/A   Overcast
11:55 PM 17.6 °F 9.3 °F 8.6 °F 68% 29.80 in 10.0 mi SE 5.8 mph - N/A   Overcast